Weather Roundup
Issued by NWS Springfield, MO

Home | Current Version | Previous Version | Text Only | Print | Product List | Glossary On
Versions: 1 2 3 4 5 6 7 8 9 10 11 12 13 14 15 16 17 18 19 20 21 22 23 24 25 26 27 28 29 30 31 32 33 34 35 36 37 38 39 40 41 42 43 44 45 46 47 48 49 50
000
NZUS99 KSGF 261607
HRRSGF

HOURLY WEATHER
NATIONAL WEATHER SERVICE SPRINGFIELD MO
1100 AM CDT SUN MAR 26 2017

......SGF CWA......

CITY           SKY/WX    TMP DP  RH WIND       PRES   REMARKS
SPRINGFIELD    PTSUNNY   55  47  74 SW10      29.94R
JOPLIN         PTSUNNY   55  46  71 SW8       29.96R
WEST PLAINS    CLOUDY    53  47  79 S5        29.96R
ROLLA          CLOUDY    52  49  89 SW8       29.90F
OSAGE BEACH    CLOUDY   N/A N/A N/A VRB6      29.93R
BRANSON        PTSUNNY   54  46  76 SW5       29.98R

......SURROUNDING SGF CWA......

CITY           SKY/WX    TMP DP  RH WIND       PRES   REMARKS
CHANUTE        CLOUDY    49  45  86 S9        29.96R
PARSONS        CLOUDY    50  44  80 S5        29.97R
COFFEYVILLE    PTSUNNY   52  45  77 SE3       29.96F
EMPORIA        CLOUDY    46  45  96 SE5       29.94R
GROVE OK       SUNNY     55  46  71 CALM      29.97R
ROGERS AR      SUNNY     55  46  71 W7        29.97S
SILOAM SPRINGS SUNNY     54  48  82 CALM      29.96S
HARRISON AR    SUNNY     57  45  64 W3        29.96S
NEAR YELLVILLE PTSUNNY   57  43  58 SE5       29.96R

......KANSAS AND MISSOURI......

CITY           SKY/WX    TMP DP  RH WIND       PRES   REMARKS
KANSAS CTY INT CLOUDY    46  43  89 W6        29.93S
DOWNTOWN KC    CLOUDY    50  42  74 SW7       29.93R
COLUMBIA       CLOUDY    50  49  96 W7        29.90S FOG
SEDALIA        CLOUDY    50  48  93 W9        29.94R
ST JOSEPH      CLOUDY    45  43  93 W9        29.94R
ST LOUIS       CLOUDY    55  47  74 SW9       29.91S
SPIRIT OF STL  CLOUDY    54  49  83 SW10      29.91R
KIRKSVILLE     CLOUDY    46  45  96 W9        29.88S
WICHITA        CLOUDY    45  44  97 SE6       29.93S FOG
TOPEKA         CLOUDY    47  43  86 W5        29.93S
OLATHE         CLOUDY    46  43  89 W9        29.93S

......TENNESSEE......

CITY           SKY/WX    TMP DP  RH WIND       PRES   REMARKS
MEMPHIS        MOSUNNY   67  56  67 S9        29.99S
NASHVILLE      CLOUDY    65  56  72 S15G23    30.02S

......ARKANSAS.......

CITY           SKY/WX    TMP DP  RH WIND       PRES   REMARKS
FAYETTEVILLE   SUNNY     58  49  72 S5        29.96S
FT SMITH       SUNNY     61  47  59 E6        29.97S
LITTLE ROCK    MOSUNNY   61  51  70 S3        30.00S

......OKLAHOMA.......

CITY           SKY/WX    TMP DP  RH WIND       PRES   REMARKS
TULSA          PTSUNNY   56  46  69 SE8       29.93F
PONCA CITY     CLOUDY    54  43  66 E12       29.90F
MCALESTER      MOSUNNY   66  49  54 VRB7      29.91F
OKLAHOMA CITY  CLOUDY    63  47  55 SE15      29.85F

......IOWA............

CITY           SKY/WX    TMP DP  RH WIND       PRES   REMARKS
DES MOINES     CLOUDY    42  41  96 NW7       29.89R FOG
QUAD CITIES    CLOUDY    56  52  86 SW8       29.81S

......ILLINOIS........

CITY           SKY/WX    TMP DP  RH WIND       PRES   REMARKS
QUINCY         CLOUDY    48  47  96 W12       29.87R
CHICAGO        RAIN      56  53  90 S7        29.83F FOG




USA.gov is the U.S. government's official web portal to all federal, state and local government web resources and services.